www.pogodaiklimat.ru

Погода и климат >> Архив погоды >> Ирак >> Fao


ПОГОДА в Fao

  • Прогноз погоды в Fao
  • Монитор погоды в Fao
  • Климат города

АРХИВ ПОГОДЫ в Fao

Время (UTC), дата Ветер
(напр.,м/с)
 
Видим.   Явления Облачность Т
(С)
Тd
(С)
f
(%)
Тe
(С)
Тes
(С)
Комфортность P
(гПа)
Po
(гПа)
Тmin
(С)
Tmax
(С)
R
(мм)
R24
(мм)
S
(см)
03 14.10 штиль 0 10 км ясно +29.2 +26.4 85 +45 +45 опасность
перегрева
1016.6 1017.0
09 14.10 ЮВ 2 10 км ясно +34.8 +26.0 60 +50 +63 опасность
перегрева
1016.0 1016.0
12 14.10 ЮВ 2 10 км ясно +35.4 +23.8 51 +47 +52 опасность
перегрева
1013.8 1014.0
15 14.10 ЮВ 2 10 км ясно +31.6 +25.1 69 +46 +46 опасность
перегрева
1014.2 1014.0
18 14.10 В 2 10 км ясно +30.2 +25.1 74 +44 +44 опасность
перегрева
1015.2 1015.0 +36.0
21 14.10 В 3 4000 м пыль ясно +30.2 +20.6 56 +37 +37 очень
душно
1016.0 1016.0
00 15.10 ЮВ 3 4000 м пыль ясно +29.6 +24.5 74 +42 +42 опасность
перегрева
1015.0 1015.0
03 15.10 ЮВ 2 10 км 3/0
[Ci fib]
+29.6 +25.1 77 +43 +43 опасность
перегрева
1015.8 1016.0
06 15.10 С 5 2000 м в посл. час гроза {ливн. осадки} 4/0
[Ac trans]
+25.8 +22.7 83 +28 +31 жарко 1019.2 1019.0 +24.0 0.0
09 15.10 В 5 800 м пыль {туман} 4/0
[Ac trans]
+31.8 +17.9 44 +36 +41 очень
душно
1016.4 1016.0
12 15.10 В 2 10 км ясно +33.4 +11.5 26 +33 +38 жарко 1015.4 1015.0
15 15.10 штиль 0 10 км ясно +29.8 +16.9 46 +33 +33 душно 1016.0 1016.0
18 15.10 штиль 0 10 км ясно +27.8 +21.6 69 +36 +36 очень
душно
1016.4 1016.0 +34.0
21 15.10 штиль 0 10 км ясно +25.0 +20.8 78 +31 +31 очень
душно
1016.2 1016.0
00 16.10 штиль 0 10 км ясно +24.6 +20.7 79 +31 +31 очень
душно
1015.4 1015.0
03 16.10 З 2 8000 м мгла ясно +24.6 +21.0 80 +31 +31 очень
душно
1016.8 1017.0
06 16.10 СЗ 2 6000 м пыль 3/3 1200 м
[Cu hum]
+29.2 +18.7 53 +34 +39 очень
душно
1018.4 1018.0 +23.6
09 16.10 СЗ 2 8000 м пыль 1/0
[Ci sp]
+35.6 +15.8 31 +38 +50 очень
душно
1017.0 1017.0
12 16.10 ЮВ 2 10 км 4/0
[Ac trans Ci fib]
+35.0 +20.9 44 +42 +46 опасность
перегрева
1015.0 1015.0
15 16.10 ЮВ 2 10 км 1/0
[Ci fib]
+30.8 +22.0 59 +39 +39 очень
душно
1015.0 1015.0
21 16.10 штиль 0 10 км ясно +27.8 +21.6 69 +36 +36 очень
душно
1015.0 1015.0
00 17.10 штиль 0 10 км ясно +26.4 +22.1 77 +34 +34 очень
душно
1014.8 1015.0
06 17.10 З 3 10 км ясно +29.8 +16.9 46 +33 +39 душно 1016.8 1017.0 +24.5
09 17.10 ЮЗ 3 10 км ясно +36.2 +14.0 27 +37 +47 очень
жарко
1015.0 1015.0
12 17.10 СЗ 3 4000 м пыль ясно +37.2 +12.7 23 +37 +41 очень
жарко
1012.6 1013.0
15 17.10 ЮВ 3 6000 м пыль ясно +31.8 +22.2 57 +41 +41 опасность
перегрева
1013.0 1013.0
18 17.10 ЮВ 2 10 км ясно +29.2 +22.5 67 +38 +38 очень
душно
1014.4 1014.0 +38.2
21 17.10 Ю 2 10 км ясно +28.0 +23.1 75 +38 +38 очень
душно
1014.0 1014.0
00 18.10 Ю 2 10 км ясно +26.6 +22.2 77 +35 +35 очень
душно
1013.8 1014.0
03 18.10 штиль 0 10 км 1/0
[Ac trans]
+26.0 +22.5 81 +34 +34 очень
душно
1014.2 1014.0
06 18.10 Ю 2 10 км 1/0
[Ac trans]
+31.0 +23.2 63 +41 +47 опасность
перегрева
1015.2 1015.0 +25.2
09 18.10 штиль 0 10 км ясно +35.5 +18.4 37 +40 +56 опасность
солнечного
удара
1014.2 1014.0
12 18.10 Ю 2 4000 м мгла ясно +34.8 +18.4 38 +39 +44 очень
душно
1012.4 1012.0
15 18.10 ЮВ 2 10 км ясно +30.4 +23.2 65 +41 +41 опасность
перегрева
1012.6 1013.0
18 18.10 Ю 2 10 км ясно +29.2 +23.7 72 +40 +40 очень
душно
1014.2 1014.0 +36.2
21 18.10 Ю 2 10 км 3/3 1200 м
[Cu hum]
+28.0 +24.4 81 +39 +39 очень
душно
1014.8 1015.0
00 19.10 штиль 0 10 км ясно +28.0 +24.0 79 +39 +39 очень
душно
1014.2 1014.0
03 19.10 З 2 10 км 1/0
[Ac trans]
+27.0 +23.5 81 +37 +37 очень
душно
1014.8 1015.0
06 19.10 СЗ 2 10 км ясно +29.2 +21.8 64 +37 +44 очень
душно
1018.2 1018.0 +26.6
09 19.10 З 3 10 км ясно +34.4 +17.5 37 +38 +48 очень
душно
1016.4 1016.0
12 19.10 СВ 3 10 км ясно +35.4 +20.1 41 +34 +38 очень
жарко
1015.2 1015.0
15 19.10 штиль 0 10 км ясно +30.6 +24.0 68 +42 +42 опасность
перегрева
1015.0 1015.0
18 19.10 Ю 2 10 км ясно +28.6 +23.4 73 +39 +39 очень
душно
1016.4 1016.0 +35.8
21 19.10 штиль 0 10 км ясно +27.2 +23.1 78 +36 +36 очень
душно
1015.8 1016.0
00 20.10 З 2 10 км ясно +26.0 +22.5 81 +34 +34 очень
душно
1015.2 1015.0
03 20.10 штиль 0 10 км ясно +24.8 +21.2 80 +31 +31 очень
душно
1016.4 1016.0
06 20.10 СЗ 2 10 км ясно +29.0 +21.3 63 +37 +43 очень
душно
1018.6 1019.0 +24.5
09 20.10 СЗ 2 10 км ясно +33.6 +16.8 37 +37 +49 очень
душно
1017.2 1017.0
12 20.10 ЮВ 2 10 км ясно +33.8 +19.4 43 +39 +44 очень
душно
1015.6 1016.0
15 20.10 штиль 0 10 км 1/0
[Ac trans]
+30.2 +21.0 58 +38 +38 очень
душно
1015.8 1016.0
18 20.10 С 2 10 км ясно +28.2 +18.6 56 +33 +33 очень
душно
1016.6 1017.0 +34.8
21 20.10 штиль 0 10 км ясно +26.6 +16.7 55 +30 +30 душно 1016.2 1016.0

 

Местоположение метеостанции Fao (Ирак): широта 29.98 долгота 48.50 высота над уровнем моря 2 м.

В архиве по умолчанию представлена погода в Fao за последнюю неделю. Архивные данные за месяц целиком и за предыдущие месяцы, начиная с января 2011 года, Вы можете получить, выбрав интересующий диапазон дат из раскрывающегося списка и нажав кнопку "Ввод!".


*Определитесь, кто Вы:
робот инопланетянин человек

Внимание! Время в таблицах - всемирное. Для получения местного времени необходимо прибавить поправку, которая в Fao равна 3 ч.

Смотрите также архив погоды в соседних городах и на ближайших метеорологических станциях:

Погода в Bubiyan (Кувейт) (26 км)
Погода в Abadan (Иран) (50 км)
Погода в Failaka Island (Кувейт) (61 км)
Погода в Sabriyah (Кувейт) (68 км)
Погода в Abdaly (Кувейт) (78 км)
Погода в Al-Shuaiba (Кувейт) (80 км)
Погода в Kuwait City (Кувейт) (84 км)
Погода в Basrah Airport (Ирак) (92 км)
Погода в Experimental Farm (Кувейт) (94 км)
Погода в Basrah (Ирак) (95 км)

Пояснения к столбцам:

Ветер - указаны скорость ветра в м/с - средняя за 10 мин, порывы в срок и между сроками (в фигурных скобках) и направление, откуда дует ветер: С - северный, СВ - северо-восточный, В - восточный, ЮВ - юго-восточный, Ю - южный, ЮЗ - юго-западный, З - западный, СЗ - северо-западный.
Видимость - горизонтальная дальность видимости в метрах или километрах. При видимости от 1 до 10 км при отсутствии осадков обычно наблюдается дымка, при ухудшении видимости до 1 км и менее - туман. В сухую погоду видимость может ухудшаться дымом, пылью или мглою.
Явления - указаны атмосферные явления, наблюдавшиеся в срок или в последний час перед сроком; фигурными скобками обозначены явления, наблюдавшиеся между сроками (за 1-3 часа до срока); квадратными скобками обозначены град или гололедные отложения с указанием их диаметра в мм.
Облачность - указаны через наклонную черту общая и нижняя облачность в баллах и высота нижней границы облаков в метрах; квадратными скобками обозначены формы облаков: Ci - перистые, Cs - перисто-слоистые, Cc - перисто-кучевые, Ac - высококучевые, As - высокослоистые, Sc - слоисто-кучевые, Ns - слоисто-дождевые, Cu - кучевые, Cb - кучево-дождевые. Подробнее классификацию облаков см. в Атласе облаков (PDF).
T - Температура воздуха - температура, измеренная на высоте 2 м над землей.
Td - Температура точки росы - температура, при понижении до которой содержащийся в воздухе водяной пар достигнет насыщения.
f - Относительная влажность воздуха - влажноcть воздуха, измеренная на высоте 2 м над землей.
Te - Эффективная температура - температура, которую ощущает одетый по сезону человек в тени. Характеристика душности погоды. При расчете учитывается влияние влажности воздуха и скорости ветра на теплоощущения человека.
Tes - Эффективная температура на солнце - температура, которую ощущает человек, с поправкой на солнечный нагрев. Характеристика знойности погоды. Зависит от высоты солнца над горизонтом, облачности и скорости ветра. Ночью, в пасмурную погоду, а также при ветре 12 м/с и более поправка равна нулю.
P - Атмосферное давление - приведенное к уровню моря атмосферное давление.
Po - Атмосферное давление - измеренное на уровне метеостанции атмосферное давление.
Tmin - Минимальная температура - минимум температуры воздуха на высоте 2 м над землей.
Tmax - Максимальная температура - максимум температуры воздуха на высоте 2 м над землей.
R - Количество осадков - Количество выпавших осадков за период времени, мм. При наведении курсора мыши на число - период времени, за который выпало указанное количество осадков.
R24 - Количество осадков - Количество выпавших осадков за 24 часа, мм.
S - Снежный покров - Высота снежного покрова, см. При наведении курсора мыши на число - состояние снежного покрова и степень покрытия местности в баллах.